Location: Sungai Dangang
(2.7500°N, 113.8333°E)
Time: 22:07:12
(UTC+00:00)

CZ-4C R/B - Pass Details

Date: 16 May 2021
Orbit: 407 x 485 km, 97.7° (Epoch: 15 June)

Event Time Altitude Azimuth Distance (km) Brightness Sun altitude
Rises 21:27:16 0° 164° (SSE) 2,425 6.6 -11.7°
Reaches altitude 10° 21:29:19 10° 162° (SSE) 1,540 5.6 -11.3°
Maximum altitude 21:32:35 66° 79° (E) 468 3.2 -10.5°
Drops below altitude 10° 21:35:45 10° 356° (N) 1,495 5.8 -9.8°
Sets 21:37:43 0° 353° (N) 2,345 6.7 -9.3°
